Weather in Ufa

Russia / Republic of Bashkortostan     54°44′06″N   55°57′31″E
temp.,
°C
wind,
m/s
gust,
m/s
humid.,
%
clouds,
%
prec.,
mm/h
press.,
hPa
HPBL,
m
21 january, fri
fri2123:00−16sse259387 0.0 102376
02:00−20sse239713 0.0 102438
05:00−21sse22985 0.0 102526
08:00−22sse229856 0.0 102528
11:00−18s239263 0.0 102575
14:00−12s249025 0.0 1025172
17:00−14se11955 0.0 10259
20:00−19sse119815 0.0 102610
22 january, sat
sat2223:00−17se119694 0.0 102626
02:00−17se1197100 0.0 102718
05:00−18se1198100 0.0 102710
08:00−17se1198100 0.0 102717
11:00−12se2394100 0.0 102876
14:00−8se2489100 0.0 1028167
17:00−10se1194100 0.0 102910
20:00−13se1195100 0.0 103012
23 january, sun
sun2323:00−13se1196100 0.0 103115
02:00−15sse1196100 0.0 10329
05:00−15se1197100 0.0 103311
08:00−15ese1197100 0.0 103410
11:00−12se1195100 0.0 103551
14:00−8sse1189100 0.0 1036115
17:00−9s0195100 0.0 103710
20:00−14ese1198100 0.0 10399
24 january, mon
mon2423:00−15se1198100 0.0 10409
02:00−18ese1199100 0.0 10409
05:00−18sse1199100 0.0 10429
08:00−17sse0098100 0.0 10429
11:00−13se1194100 0.0 104241
14:00−9s1287100 0.0 1041106
17:00−11sse1193100 0.0 104110
20:00−14s1194100 0.0 104110
25 january, tue
tue2523:00−14s2294100 0.0 104026
02:00−13s1192100 0.0 103930
05:00−16s1192100 0.0 103910
08:00−17sse1195100 0.0 103910
11:00−14s2391100 0.0 103867
14:00−9s2382100 0.0 1037148
17:00−12sse1192100 0.0 103710
20:00−16s1196100 0.0 103710